Location: Caltech
(34.1382°N, 118.1253°W)
Time: 14:57:04
(UTC-08:00)

ADEOS II - Visible Passes

Search period start: 26 February 2015 00:00
Search period end: 08 March 2015 00:00
Orbit: 801 x 802 km, 98.3° (Epoch: 26 February)

Date Brightness Start Highest point End Pass type
(mag) Time Alt. Az. Time Alt. Az. Time Alt. Az.
26 Feb 2.0 05:38:53 10° N 05:44:09 79° WNW 05:49:24 10° SSW visible
27 Feb 2.8 05:12:50 10° NNE 05:18:01 57° E 05:23:11 10° S visible
27 Feb 5.6 18:11:10 10° WSW 18:13:55 14° W 18:16:21 10° WNW visible
28 Feb 4.0 04:47:10 10° NE 04:51:45 31° E 04:56:25 10° SSE visible
01 Mar 4.9 04:22:07 10° NE 04:25:22 17° E 04:28:50 10° SE visible
02 Mar 2.1 05:34:05 10° NNE 05:39:22 87° WNW 05:44:38 10° SSW visible
03 Mar 3.0 05:08:05 10° NNE 05:13:13 52° E 05:18:20 10° S visible
04 Mar 4.2 04:42:30 10° NE 04:46:56 28° E 04:51:28 10° SSE visible
05 Mar 5.1 04:17:38 10° ENE 04:20:31 15° E 04:23:40 10° SE visible
06 Mar 2.2 05:29:18 10° NNE 05:34:35 86° E 05:39:51 10° SSW visible
07 Mar 3.2 05:03:21 10° NNE 05:08:24 47° E 05:13:27 10° S visible
